Location: Wolf Lake
(46.8518°N, 80.6381°W)
Time: 05:18:53
(UTC-05:00)

ISS - Visible Passes

Search period start: 05 March 2024 00:00
Search period end: 15 March 2024 01:00
Orbit: 414 x 422 km, 51.6° (Epoch: 05 March)

Date Brightness Start Highest point End Pass type
(mag) Time Alt. Az. Time Alt. Az. Time Alt. Az.
05 Mar -0.7 04:02:35 15° E 04:02:35 15° E 04:03:21 10° E visible
05 Mar -3.4 05:35:32 29° W 05:36:53 47° SSW 05:40:08 10° SE visible
06 Mar -3.0 04:49:42 47° SE 04:49:42 47° SE 04:52:14 10° SE visible
07 Mar -0.6 04:03:58 11° ESE 04:03:58 11° ESE 04:04:09 10° ESE visible
07 Mar -2.3 05:36:56 20° SW 05:37:15 20° SW 05:39:50 10° S visible
08 Mar -1.5 04:51:21 17° SSE 04:51:21 17° SSE 04:52:19 10° SSE visible
12 Mar -1.4 20:55:20 10° S 20:55:49 12° S 20:55:49 12° S visible
13 Mar -1.5 20:08:45 10° SE 20:09:32 11° SE 20:10:19 10° ESE visible
13 Mar -1.4 21:42:24 10° SW 21:43:23 18° SW 21:43:23 18° SW visible
14 Mar -3.3 20:54:18 10° SW 20:57:27 39° SE 20:57:45 38° SE visible
